Weather History for KETH - October, 2012

Change the Weather History Date:

Friday, October 5, 2012

  Actual Average Record
Temperature  
Mean Temperature 35 °F -  
Max Temperature 42 °F 66 °F 96 °F (1963)
Min Temperature 28 °F 40 °F 25 °F (1988)
Degree Days  
Heating Degree Days 30    
Moisture  
Dew Point 27 °F    
Average Humidity 72    
Maximum Humidity 87    
Minimum Humidity 53    
Precipitation  
Precipitation 0.00 in - - ()
Sea Level Pressure  
Sea Level Pressure 30.24 in    
Wind  
Wind Speed 14 mph (WNW)    
Max Wind Speed 23 mph    
Max Gust Speed 32 mph    
Visibility 10 miles    
Events      
Averages and records for this station are not official NWS values.
T = Trace of Precipitation, MM = Missing Value Source: NWS Daily Summary

Daily Weather History Graph

Daily Weather History Graph

Search for Another Location

Airport or City:

Trip Planner

Search our weather history database for the weather conditions in past years. The results will help you decide how hot, cold, wet, or windy it might be!

Date:

Astronomy

Oct. 05, 2012 Rise Set
Actual Time 7:30 AM CDT 6:57 PM CDT
Civil Twilight 7:00 AM CDT 7:27 PM CDT
Nautical Twilight 6:26 AM CDT 8:01 PM CDT
Astronomical Twilight 5:51 AM CDT 8:36 PM CDT
Moon 10:07 PM CDT (10/5) 12:53 PM CDT (10/5)
Length of Visible Light 12h 26m
Length of Day
11h 27m
Waning Gibbous, 74% of the Moon is Illuminated
Oct 5
Waning Gibbous
Oct 8
Last Quarter
Oct 15
New
Oct 21
First Quarter
Oct 29
Full

Hourly Weather History & Observations

Time (CDT) Temp. Windchill Dew Point Humidity Pressure Visibility Wind Dir Wind Speed Gust Speed Precip Events Conditions
12:15 AM 37.4 °F 29.8 °F 28.4 °F 70% 30.24 in 10.0 mi West 11.5 mph - N/A   Scattered Clouds
12:35 AM 35.6 °F 27.5 °F 28.4 °F 75% 30.24 in 10.0 mi West 11.5 mph - N/A   Clear
12:55 AM 35.6 °F 27.5 °F 28.4 °F 75% 30.24 in 10.0 mi West 11.5 mph 17.3 mph N/A   Clear
1:15 AM 35.6 °F 27.5 °F 28.4 °F 75% 30.24 in 10.0 mi West 11.5 mph - N/A   Clear
1:35 AM 33.8 °F 25.3 °F 28.4 °F 81% 30.24 in 10.0 mi West 11.5 mph - N/A   Clear
1:55 AM 33.8 °F 25.8 °F 28.4 °F 81% 30.24 in 10.0 mi West 10.4 mph - N/A   Clear
2:15 AM 33.8 °F 25.3 °F 28.4 °F 81% 30.24 in 10.0 mi West 11.5 mph - N/A   Clear
2:35 AM 33.8 °F 25.3 °F 28.4 °F 81% 30.24 in 10.0 mi West 11.5 mph - N/A   Clear
2:55 AM 33.8 °F 24.8 °F 26.6 °F 75% 30.24 in 10.0 mi West 12.7 mph 19.6 mph N/A   Clear
3:15 AM 33.8 °F 23.9 °F 26.6 °F 75% 30.23 in 10.0 mi West 15.0 mph 20.7 mph N/A   Clear
3:35 AM 32.0 °F 22.1 °F 26.6 °F 80% 30.23 in 10.0 mi West 13.8 mph 19.6 mph N/A   Clear
3:55 AM 32.0 °F 22.5 °F 26.6 °F 80% 30.22 in 10.0 mi West 12.7 mph 19.6 mph N/A   Clear
4:15 AM 32.0 °F 22.1 °F 26.6 °F 80% 30.22 in 10.0 mi West 13.8 mph - N/A   Clear
4:35 AM 30.2 °F 20.2 °F 26.6 °F 86% 30.22 in 10.0 mi West 12.7 mph - N/A   Clear
4:55 AM 30.2 °F 20.2 °F 26.6 °F 86% 30.22 in 10.0 mi West 12.7 mph 18.4 mph N/A   Clear
5:15 AM 30.2 °F 20.2 °F 26.6 °F 86% 30.22 in 10.0 mi West 12.7 mph - N/A   Clear
5:35 AM 30.2 °F 19.8 °F 26.6 °F 86% 30.22 in 10.0 mi West 13.8 mph - N/A   Clear
5:55 AM 30.2 °F 19.8 °F 24.8 °F 80% 30.23 in 10.0 mi West 13.8 mph - N/A   Clear
6:15 AM 30.2 °F 19.8 °F 24.8 °F 80% 30.22 in 10.0 mi West 13.8 mph - N/A   Clear
6:35 AM 30.2 °F 19.3 °F 24.8 °F 80% 30.23 in 10.0 mi West 15.0 mph 18.4 mph N/A   Clear
6:55 AM 30.2 °F 19.8 °F 24.8 °F 80% 30.22 in 10.0 mi West 13.8 mph 18.4 mph N/A   Clear
7:15 AM 30.2 °F 20.2 °F 24.8 °F 80% 30.23 in 10.0 mi West 12.7 mph 20.7 mph N/A   Clear
7:35 AM 30.2 °F 19.3 °F 24.8 °F 80% 30.22 in 10.0 mi West 15.0 mph 23.0 mph N/A   Clear
7:55 AM 28.4 °F 16.6 °F 24.8 °F 86% 30.23 in 10.0 mi WNW 16.1 mph 23.0 mph N/A   Clear
8:15 AM 30.2 °F 18.9 °F 24.8 °F 80% 30.23 in 10.0 mi West 16.1 mph 21.9 mph N/A   Clear
8:35 AM 30.2 °F 18.5 °F 24.8 °F 80% 30.23 in 10.0 mi WNW 17.3 mph 23.0 mph N/A   Clear
8:55 AM 30.2 °F 19.3 °F 24.8 °F 80% 30.23 in 10.0 mi WNW 15.0 mph - N/A   Clear
9:15 AM 32.0 °F 19.8 °F 24.8 °F 75% 30.24 in 10.0 mi WNW 20.7 mph 25.3 mph N/A   Clear
9:35 AM 33.8 °F 22.8 °F 24.8 °F 70% 30.25 in 10.0 mi WNW 18.4 mph 25.3 mph N/A   Clear
9:55 AM 33.8 °F 23.2 °F 26.6 °F 75% 30.25 in 10.0 mi WNW 17.3 mph 26.5 mph N/A   Clear
10:15 AM 35.6 °F 25.2 °F 26.6 °F 70% 30.25 in 10.0 mi WNW 18.4 mph 24.2 mph N/A   Clear
10:35 AM 35.6 °F 25.2 °F 26.6 °F 70% 30.25 in 10.0 mi WNW 18.4 mph 25.3 mph N/A   Clear
10:55 AM 37.4 °F 26.9 °F 26.6 °F 65% 30.25 in 10.0 mi WNW 20.7 mph 27.6 mph N/A   Clear
11:15 AM 37.4 °F 27.5 °F 26.6 °F 65% 30.25 in 10.0 mi WNW 18.4 mph 24.2 mph N/A   Clear
11:35 AM 37.4 °F 28.2 °F 26.6 °F 65% 30.25 in 10.0 mi WNW 16.1 mph 26.5 mph N/A   Scattered Clouds
12:15 PM 39.2 °F 30.5 °F 26.6 °F 61% 30.24 in 10.0 mi WNW 16.1 mph 24.2 mph N/A   Scattered Clouds
12:35 PM 39.2 °F 29.3 °F 26.6 °F 61% 30.24 in 10.0 mi WNW 20.7 mph 27.6 mph N/A   Scattered Clouds
12:55 PM 39.2 °F 29.8 °F 26.6 °F 61% 30.24 in 10.0 mi WNW 18.4 mph 24.2 mph N/A   Mostly Cloudy
1:15 PM 39.2 °F 29.8 °F 26.6 °F 61% 30.24 in 10.0 mi WNW 18.4 mph 27.6 mph N/A   Mostly Cloudy
1:35 PM 39.2 °F 30.2 °F 26.6 °F 61% 30.24 in 10.0 mi NW 17.3 mph 26.5 mph N/A   Mostly Cloudy
1:56 PM 39.2 °F 30.2 °F 26.6 °F 61% 30.24 in 10.0 mi WNW 17.3 mph 24.2 mph N/A   Mostly Cloudy
2:15 PM 41.0 °F 31.6 °F 26.6 °F 57% 30.23 in 10.0 mi WNW 20.7 mph 25.3 mph N/A   Mostly Cloudy
2:35 PM 42.8 °F 33.8 °F 26.6 °F 53% 30.23 in 10.0 mi WNW 21.9 mph 32.2 mph N/A   Mostly Cloudy
2:55 PM 42.8 °F 33.8 °F 26.6 °F 53% 30.23 in 10.0 mi WNW 21.9 mph 28.8 mph N/A   Mostly Cloudy
3:15 PM 41.0 °F 31.6 °F 26.6 °F 57% 30.24 in 10.0 mi NW 20.7 mph 27.6 mph N/A   Mostly Cloudy
3:35 PM 41.0 °F 31.1 °F 24.8 °F 53% 30.23 in 10.0 mi WNW 23.0 mph 29.9 mph N/A   Mostly Cloudy
3:55 PM 39.2 °F 29.3 °F 26.6 °F 61% 30.24 in 10.0 mi WNW 20.7 mph 24.2 mph N/A   Overcast
4:15 PM 39.2 °F 29.8 °F 26.6 °F 61% 30.24 in 10.0 mi WNW 18.4 mph 26.5 mph N/A   Overcast
4:35 PM 39.2 °F 30.5 °F 26.6 °F 61% 30.24 in 10.0 mi WNW 16.1 mph 23.0 mph N/A   Overcast
4:55 PM 39.2 °F 29.8 °F 26.6 °F 61% 30.24 in 10.0 mi WNW 18.4 mph 23.0 mph N/A   Overcast
5:15 PM 39.2 °F 29.3 °F 26.6 °F 61% 30.24 in 10.0 mi WNW 20.7 mph 26.5 mph N/A   Overcast
5:35 PM 39.2 °F 29.6 °F 26.6 °F 61% 30.24 in 10.0 mi WNW 19.6 mph 26.5 mph N/A   Overcast
5:55 PM 39.2 °F 29.8 °F 26.6 °F 61% 30.24 in 10.0 mi NW 18.4 mph 28.8 mph N/A   Overcast
6:15 PM 39.2 °F 30.5 °F 26.6 °F 61% 30.24 in 10.0 mi WNW 16.1 mph 25.3 mph N/A   Overcast
6:35 PM 39.2 °F 30.2 °F 26.6 °F 61% 30.25 in 10.0 mi NW 17.3 mph 21.9 mph N/A   Overcast
6:55 PM 39.2 °F 31.6 °F 26.6 °F 61% 30.25 in 10.0 mi WNW 12.7 mph 23.0 mph N/A   Overcast
7:15 PM 37.4 °F 27.5 °F 28.4 °F 70% 30.26 in 10.0 mi WNW 18.4 mph 27.6 mph N/A   Overcast
7:35 PM 37.4 °F 28.9 °F 28.4 °F 70% 30.26 in 10.0 mi WNW 13.8 mph 19.6 mph N/A   Mostly Cloudy
7:55 PM 35.6 °F 26.6 °F 28.4 °F 75% 30.27 in 10.0 mi WNW 13.8 mph - N/A   Scattered Clouds
8:15 PM 35.6 °F 26.6 °F 28.4 °F 75% 30.27 in 10.0 mi WNW 13.8 mph 18.4 mph N/A   Scattered Clouds
8:35 PM 35.6 °F 27.1 °F 28.4 °F 75% 30.28 in 10.0 mi NW 12.7 mph - N/A   Mostly Cloudy
8:55 PM 35.6 °F 27.1 °F 28.4 °F 75% 30.28 in 10.0 mi NW 12.7 mph - N/A   Scattered Clouds
9:15 PM 35.6 °F 27.5 °F 28.4 °F 75% 30.28 in 10.0 mi WNW 11.5 mph - N/A   Scattered Clouds
9:35 PM 35.6 °F 26.2 °F 28.4 °F 75% 30.29 in 10.0 mi WNW 15.0 mph 19.6 mph N/A   Mostly Cloudy
9:55 PM 35.6 °F 26.6 °F 28.4 °F 75% 30.29 in 10.0 mi WNW 13.8 mph - N/A   Mostly Cloudy
10:35 PM 33.8 °F 24.8 °F 30.2 °F 87% 30.29 in 10.0 mi WNW 12.7 mph - N/A   Mostly Cloudy
10:55 PM 35.6 °F 26.6 °F 30.2 °F 81% 30.29 in 10.0 mi WNW 13.8 mph 17.3 mph N/A   Overcast
11:15 PM 35.6 °F 25.5 °F 30.2 °F 81% 30.29 in 10.0 mi WNW 17.3 mph 23.0 mph N/A   Overcast
11:55 PM 35.6 °F 26.6 °F 30.2 °F 81% 30.29 in 10.0 mi NW 13.8 mph 19.6 mph N/A   Overcast